This is the latest recevied weather packets stored in our database for station/object KK7RJD. If no packets are shown the sender has not sent any weather packets the latest 10 day(s).
| Time | Temp. | Humidity | Pressure | Rain* | Wind** | Luminosity | Snow |
|---|---|---|---|---|---|---|---|
| 1777602800 | 10.56° C | 31% | 1020.1 hPa | 0 mm | - | 1 W/m² | - |
| 1777602495 | 10.56° C | 31% | 1020 hPa | 0 mm | - | 1 W/m² | - |
| 1777602192 | 11.11° C | 30% | 1020 hPa | 0 mm | - | 2 W/m² | - |
| 1777601887 | 11.11° C | 30% | 1020 hPa | 0 mm | - | 4 W/m² | - |
| 1777601582 | 11.67° C | 29% | 1019.9 hPa | 0 mm | - | 6 W/m² | - |
| 1777601278 | 11.67° C | 29% | 1020 hPa | 0 mm | - | 9 W/m² | - |
| 1777600975 | 11.67° C | 28% | 1019.7 hPa | 0 mm | - | 12 W/m² | - |
| 1777600671 | 12.22° C | 28% | 1019.8 hPa | 0 mm | - | 16 W/m² | - |
| 1777600367 | 12.22° C | 27% | 1019.9 hPa | 0 mm | - | 19 W/m² | - |
| 1777600063 | 12.78° C | 27% | 1019.8 hPa | 0 mm | - | 21 W/m² | - |
| 1777599759 | 12.78° C | 26% | 1019.8 hPa | 0 mm | - | 24 W/m² | - |
| 1777599455 | 12.78° C | 26% | 1019.7 hPa | 0 mm | - | 27 W/m² | - |
| 1777599153 | 12.78° C | 27% | 1019.9 hPa | 0 mm | - | 30 W/m² | - |
| 1777598852 | 12.78° C | 27% | 1019.7 hPa | 0 mm | - | 35 W/m² | - |
| 1777598552 | 12.78° C | 26% | 1019.7 hPa | 0 mm | - | 38 W/m² | - |
| 1777598246 | 13.33° C | 27% | 1019.9 hPa | 0 mm | - | 38 W/m² | - |
| 1777597945 | 13.33° C | 25% | 1019.5 hPa | 0 mm | - | 46 W/m² | - |
| 1777597644 | 13.33° C | 25% | 1019.8 hPa | 0 mm | - | 56 W/m² | - |
| 1777597340 | 13.33° C | 26% | 1019.7 hPa | 0 mm | - | 67 W/m² | - |
| 1777597035 | 13.33° C | 28% | 1019.9 hPa | 0 mm | - | 63 W/m² | - |
| 1777596733 | 13.33° C | 28% | 1019.8 hPa | 0 mm | - | 59 W/m² | - |
| 1777596429 | 13.33° C | 29% | 1019.5 hPa | 0 mm | - | 89 W/m² | - |
| 1777596126 | 13.33° C | 29% | 1019.7 hPa | 0 mm | - | 111 W/m² | - |
| 1777595822 | 13.33° C | 29% | 1019.8 hPa | 0 mm | - | 116 W/m² | - |
| 1777595517 | 13.33° C | 30% | 1019.7 hPa | 0 mm | - | 86 W/m² | - |
* Rain latest hour (hover to see other rain measurements)
** Current wind speed in m/s (hover to see current wind gust speed)